Location: Newark
(44.6768°N, 22.5302°E)
Time: 01:11:17
(UTC+00:00)

UKube-1 - Pass Details

Date: 10 July 2022
Orbit: 608 x 615 km, 98.4° (Epoch: 15 August)

Event Time Altitude Azimuth Distance (km) Brightness Sun altitude
Rises 21:08:20 0° 7° (N) 2,891 ? -20.3°
Reaches altitude 10° 21:10:36 10° 0° (N) 1,980 ? -20.4°
Maximum altitude 21:14:39 42° 290° (WNW) 883 ? -20.7°
Enters shadow 21:17:01 22° 231° (SW) 1,361 ? -20.8°
